Regional Weather Roundup
Issued by NWS

Home | Current Version | Previous Version | Graphics & Text | Print | Product List | Glossary Off
Versions: 1 2 3 4 5 6 7 8 9 10 11 12 13 14 15 16 17 18 19 20 21 22 23 24 25 26 27 28 29 30 31 32 33 34 35 36 37 38 39 40 41 42 43 44 45 46 47 48 49 50

000
ASUS43 KMPX 210401
RWRMN
WEATHER ROUNDUP FOR MINNESOTA
NATIONAL WEATHER SERVICE TWIN CITIES/CHANHASSEN MN
1000 PM CST TUE FEB 20 2018


NOTE: "FAIR" INDICATES FEW OR NO CLOUDS BELOW 12,000 FEET WITH NO
SIGNIFICANT WEATHER AND/OR OBSTRUCTIONS TO VISIBILITY. N/A MEANS
CURRENT SKY AND/OR WEATHER CONDITIONS ARE NOT AVAILABLE.

MNZ060>063-068>070-210500-
   Twin Cities Metro

CITY           SKY/WX    TMP DP  RH WIND       PRES   REMARKS
TWIN CITIES    FAIR      10   3  73 W12       30.31R WCI  -5
ST PAUL        FAIR      11   3  70 W12       30.32R WCI  -3
CRYSTAL        FAIR       9   0  67 W14       30.30R WCI  -7
BLAINE         FAIR      10   3  72 W15       30.29R WCI  -6
LAKEVILLE      FAIR       7   3  85 W12G17    30.30R WCI  -9
EDEN PRAIRIE   FAIR       9   1  70 NW13      30.30R WCI  -7
SOUTH ST PAUL  FAIR      12   4  70 W9        30.31R WCI  -1
LAKE ELMO      FAIR      12   5  73 W9        30.29R WCI   0
$$
MNZ001>005-007-008-013>017-022>024-027-028-210500-
   Northwest Minnesota

CITY           SKY/WX    TMP DP  RH WIND       PRES   REMARKS
BEMIDJI        FAIR       2  -3  80 W8        30.18R WCI -12
HALLOCK        FAIR       0  -6  78 S12       30.18R WCI -18
ROSEAU         FAIR       1  -4  78 SW9       30.15R WCI -14
WARROAD        FAIR       1  -2  85 SW12      30.14S WCI -15
THIEF RVR FALL FAIR       1  -5  75 SW12      30.21R WCI -16
CROOKSTON      FAIR       0  -6  78 SW12      30.25R WCI -18
FOSSTON        FAIR      -8 -11  84 SW9       30.21R WCI -25
DETROIT LAKES  FAIR       1  -2  85 SW3       30.25R
MOORHEAD       FAIR       0  -8  71 SW8       30.29R WCI -15
PARK RAPIDS    FAIR      -4  -9  79 W9        30.20R WCI -20
MAHNOMEN       FAIR      -2  -7  79 SW10      30.22S WCI -19
$$
MNZ006-009>011-018-025>026-210500-
   North Central Minnesota

CITY           SKY/WX    TMP DP  RH WIND       PRES   REMARKS
BAUDETTE       FAIR       1  -3  83 W7        30.12R WCI -12
FLAG ISLAND    FAIR       0  -4  85 SW8       30.12R WCI -15
INTL FALLS     CLOUDY     7   2  80 W8        30.13R WCI  -6
WASKISH        FAIR       3   0  85 SW9       30.16R WCI -11
BIG FORK       FAIR       1  -2  85 W5        30.16R WCI  -8
LONGVILLE      FAIR      -2  -6  84 CALM      30.21R
GRAND RAPIDS   FAIR       4  -1  80 W5        30.22R WCI  -5
CRANE LAKE     CLOUDY     5   1  85 CALM      30.16R
ORR            CLOUDY     9   0  66 W8        30.11R WCI  -4
COOK             N/A      9   3  78 W15       30.14R WCI  -8
WALKER         FAIR       1  -3  82 W7        30.19S WCI -12
$$
MNZ012-019>021-037-210500-
   Northeast Minnesota

CITY           SKY/WX    TMP DP  RH WIND       PRES   REMARKS
DULUTH         CLOUDY    10   2  69 NW10      30.14R WCI  -4
ELY            CLOUDY     7   3  85 W10       30.11R WCI  -8
HIBBING        CLOUDY     7   1  76 W12       30.16R WCI  -8
EVELETH        CLOUDY   N/A N/A N/A NW12G22   30.15R
DULUTH HARBOR  FAIR      12   5  73 SW7       30.22R WCI   2
TWO HARBORS    MOCLDY    12   7  79 W6        30.13R WCI   3
GRAND MARAIS     N/A     12   4  70 W10       30.14R WCI  -1
G MARAIS ARPRT FLURRIES   3  -2  78 W6        30.01R WCI  -8
$$
MNZ029>031-032-039>041-046>048-054>057-064-210500-
   West Central Minnesota

CITY           SKY/WX    TMP DP  RH WIND       PRES   REMARKS
FERGUS FALLS   FAIR      -2  -8  78 W8        30.31R WCI -17
WHEATON        PTCLDY     1  -6  71 SW7       30.34S WCI -11
MORRIS         CLOUDY     0  -6  78 W8        30.30S WCI -15
ALEXANDRIA     FAIR       3  -2  79 W9        30.26R WCI -12
ELBOW LAKE     FAIR      -1  -5  81 SW8       30.30R WCI -15
WADENA         FAIR       0  -4  85 W8        30.23S WCI -15
GLENWOOD       FAIR       1  -2  85 W9        30.28R WCI -14
APPLETON       CLOUDY     1  -6  71 W10       30.34R WCI -14
BENSON         CLOUDY     0  -6  78 NW9       30.33R WCI -16
ORTONVILLE     CLOUDY     3  -2  78 W10       30.33R WCI -12
MADISON        CLEAR      3  -2  78 W9        30.35R WCI -11
WILLMAR        FAIR       1  -2  85 W6        30.34R WCI -10
$$
MNZ033>034-036-042>043-049>051-058-059-210500-
   Central Minnesota

CITY           SKY/WX    TMP DP  RH WIND       PRES   REMARKS
ST CLOUD       FAIR       5  -1  76 W10       30.29R WCI -10
SAUK CENTRE    FAIR       0  -4  85 W5        30.28R WCI -10
PAYNESVILLE    FAIR      -3  -5  89 W7        30.30S WCI -16
AITKIN         FAIR       3  -2  78 W7        30.23R WCI  -9
PINE RIVER     FAIR       1  -2  85 CALM      30.25R
BRAINERD       FAIR       4  -3  73 W5        30.25R WCI  -5
STAPLES        FAIR      -4  -8  84 W5        30.24S WCI -15
LONG PRAIRIE   FAIR       3   0  85 SW3       30.27R
LITTLE FALLS   FAIR       3  -6  66 W5        30.29R WCI  -6
LITCHFIELD     FAIR       3   1  92 W3        30.32R
BUFFALO        FAIR       7   1  75 W8        30.32R WCI  -6
MAPLE LAKE     FAIR       7   2  79 W8        30.32R WCI  -5
HUTCHINSON     FAIR       4   0  82 W7        30.33R WCI  -8
$$
MNZ037-044-045-052-053-210500-
   East Central Minnesota

CITY           SKY/WX    TMP DP  RH WIND       PRES   REMARKS
PRINCETON      FAIR       7   0  72 W10       30.28R WCI  -8
MORA           FAIR       9   0  66 W7        30.28R WCI  -3
CAMBRIDGE        N/A     10   0  61 W9        30.29R WCI  -2
RUSH CITY      FAIR       8   1  71 W7        30.26R WCI  -3
MOOSE LAKE     FAIR       9   1  72 W7        30.20R WCI  -3
HINCKLEY       FAIR      10   3  72 W8        30.25R WCI  -1
CLOQUET        FAIR       9   1  72 W12       30.17R WCI  -6
MCGREGOR       FAIR       9   1  72 W5        30.22R WCI   0
$$
MNZ071>073-080-081-089-090-097-098-210500-
   Southwest Minnesota

CITY           SKY/WX    TMP DP  RH WIND       PRES   REMARKS
MONTEVIDEO     CLOUDY     3  -2  78 NW3       30.35R
GRANITE FALLS  CLEAR      2  -3  78 W10       30.36R WCI -13
CANBY          PTCLDY     7   0  72 W13       30.35R WCI  -9
MARSHALL       CLOUDY     3  -3  76 W10       30.35R WCI -12
REDWOOD FALLS  CLOUDY     2  -2  83 W10       30.34R WCI -14
OLIVIA         CLOUDY     1  -4  78 W3        30.33R
PIPESTONE      CLOUDY     1  -2  85 NW10      30.31R WCI -14
WORTHINGTON    CLOUDY     4   0  83 W10       30.33R WCI -11
JACKSON        CLOUDY     9   1  72 W9        30.33R WCI  -5
TRACY          CLOUDY     5   0  79 W6        30.33R WCI  -5
SLAYTON        CLOUDY     3  -2  81 W9        30.32R WCI -12
$$
MNZ065>067-074>077-082>085-091>093-210500-
   South Central Minnesota

CITY           SKY/WX    TMP DP  RH WIND       PRES   REMARKS
MANKATO        FAIR       9   3  77 NW14      30.34R WCI  -7
NEW ULM        CLOUDY     3   0  85 W8        30.34R WCI -10
ST JAMES       CLOUDY     7   1  78 W8        30.35R WCI  -6
FAIRMONT       CLOUDY     8   3  80 NW14      30.35R WCI  -8
GLENCOE        FAIR       8   2  79 W7        30.32R WCI  -4
FARIBAULT      FAIR       9   3  78 W10       30.30R WCI  -6
OWATONNA       FAIR       9   3  78 CALM      30.30R
WASECA         FAIR      10   5  79 NW12      30.33R WCI  -4
ALBERT LEA     FAIR      10   3  72 NW6       30.31R WCI   1
$$
MNZ078>079-086>088-094>096-210500-
   Southeast Minnesota

CITY           SKY/WX    TMP DP  RH WIND       PRES   REMARKS
ROCHESTER      FAIR      10   6  84 NW15      30.26R WCI  -7
RED WING       FAIR      14   5  67 W8        30.29R WCI   3
STANTON        FAIR      10   4  75 W10       30.29R WCI  -3
DODGE CENTER   FAIR       9   3  78 W9        30.27R WCI  -5
WINONA         FAIR      16  10  79 NW8       30.28R WCI   5
AUSTIN         FAIR      10   5  79 NW9       30.29R WCI  -2
PRESTON        FAIR      11   7  83 NW6       30.26R WCI   2
$$
ABBREVIATIONS USED IN REMARKS
   TC - TEMPERATURES IN CELSIUS
  WCI - WIND CHILL INDEX
   HX - HEAT INDEX
  VSB - VISIBILITY
$$



USA.gov is the U.S. government's official web portal to all federal, state and local government web resources and services.